GW5279 Weather Reports


time (UTC)temp
C
wind
direction
speed
KPH
gust
KPH
rain 1hr
cm
rain 24hr
cm
rain mn
cm
humidity
%
barometer
mb
20260510083322 9 201 0.0 0.0 0.00 0.00 0.00 98 1013.7
20260510082818 8 260 0.0 0.0 0.00 0.00 0.00 98 1013.6
20260510082316 9 260 0.0 0.0 0.00 0.00 0.00 98 1013.8
20260510081814 9 262 0.0 0.0 0.00 0.00 0.00 98 1013.7
20260510081310 9 262 0.0 0.0 0.00 0.00 0.00 98 1013.6
20260510080806 9 262 0.0 0.0 0.00 0.00 0.00 97 1013.7
20260510080301 9 262 0.0 0.0 0.00 0.00 0.00 97 1013.7
20260510075758 9 262 0.0 0.0 0.00 0.00 0.00 97 1013.6
20260510075256 9 262 0.0 0.0 0.00 0.00 0.00 97 1013.5
20260510074753 9 262 0.0 1.6 0.00 0.00 0.00 97 1013.5
20260510074249 9 262 0.0 0.0 0.00 0.00 0.00 97 1013.5
20260510073745 9 262 0.0 1.6 0.00 0.00 0.00 97 1013.4
20260510073241 10 262 0.0 0.0 0.00 0.00 0.00 96 1013.6
20260510072737 10 262 1.6 1.6 0.00 0.00 0.00 96 1013.6
20260510072234 10 263 0.0 0.0 0.00 0.00 0.00 96 1013.6
20260510071731 10 263 0.0 0.0 0.00 0.00 0.00 96 1013.6
20260510071227 10 263 0.0 0.0 0.00 0.00 0.00 95 1013.7
20260510070726 10 263 0.0 0.0 0.00 0.00 0.00 95 1013.7
20260510070223 10 263 0.0 0.0 0.00 0.00 0.00 94 1013.5
20260510065717 10 263 0.0 0.0 0.00 0.00 0.00 94 1013.5
20260510065214 10 263 0.0 0.0 0.00 0.00 0.00 93 1013.7
20260510064710 11 263 0.0 0.0 0.00 0.00 0.00 92 1013.6
20260510064208 11 263 0.0 0.0 0.00 0.00 0.00 92 1013.7
20260510063705 11 263 0.0 0.0 0.00 0.00 0.00 91 1013.7
20260510063201 11 263 0.0 0.0 0.00 0.00 0.00 90 1013.8
20260510062657 12 263 0.0 1.6 0.00 0.00 0.00 88 1013.7
20260510062153 12 238 0.0 0.0 0.00 0.00 0.00 88 1013.7
20260510061648 12 238 0.0 0.0 0.00 0.00 0.00 86 1013.8
20260510061146 12 238 1.6 3.2 0.00 0.00 0.00 87 1013.8
20260510060642 12 238 0.0 0.0 0.00 0.00 0.00 88 1013.7
20260510060139 12 149 0.0 0.0 0.00 0.00 0.00 89 1013.7
20260510055635 12 149 0.0 0.0 0.00 0.00 0.00 88 1013.7
20260510055134 12 217 0.0 0.0 0.00 0.00 0.00 89 1013.8
20260510054629 12 218 0.0 0.0 0.00 0.00 0.00 88 1013.8
20260510054125 12 229 0.0 0.0 0.00 0.00 0.00 87 1013.7
20260510053624 12 243 0.0 0.0 0.00 0.00 0.00 86 1014.0
20260510053121 13 249 0.0 3.2 0.00 0.00 0.00 86 1014.0
20260510052617 13 284 0.0 0.0 0.00 0.00 0.00 84 1014.0
20260510052114 14 285 0.0 1.6 0.00 0.00 0.00 82 1014.0
20260510051609 14 233 0.0 0.0 0.00 0.00 0.00 81 1014.0
20260510051106 13 233 0.0 1.6 0.00 0.00 0.00 82 1014.1
20260510050603 13 233 0.0 0.0 0.00 0.00 0.00 84 1014.1
20260510050100 13 233 1.6 4.8 0.00 0.00 0.00 83 1014.1
20260510045557 13 242 1.6 3.2 0.00 0.00 0.00 86 1013.9
20260510045053 12 242 0.0 1.6 0.00 0.00 0.00 86 1013.8
20260510044550 13 249 0.0 1.6 0.00 0.00 0.00 86 1013.8
20260510044048 12 249 0.0 6.4 0.00 0.00 0.00 88 1014.0
20260510043543 11 159 0.0 0.0 0.00 0.00 0.00 92 1013.9
20260510043039 11 159 0.0 0.0 0.00 0.00 0.00 91 1013.7
20260510042538 11 154 0.0 0.0 0.00 0.00 0.00 92 1013.7
20260510042033 11 154 0.0 0.0 0.00 0.00 0.00 92 1013.7
20260510041531 11 154 0.0 0.0 0.00 0.00 0.00 91 1013.8
20260510041028 11 155 0.0 0.0 0.00 0.00 0.00 91 1013.7
20260510040525 11 200 0.0 1.6 0.00 0.00 0.00 91 1013.6
20260510040021 11 261 0.0 0.0 0.00 0.03 0.03 93 1013.7
20260510035518 11 261 0.0 0.0 0.00 0.03 0.03 93 1013.7
20260510035016 11 261 0.0 1.6 0.00 0.03 0.03 94 1013.7
20260510034516 11 261 0.0 0.0 0.00 0.03 0.03 94 1013.4
20260510034012 10 204 0.0 0.0 0.00 0.03 0.03 96 1013.4
20260510033508 10 204 0.0 0.0 0.00 0.03 0.03 96 1013.4
20260510033007 10 204 0.0 0.0 0.00 0.03 0.03 96 1013.4
20260510032503 10 204 0.0 1.6 0.00 0.03 0.03 96 1013.3
20260510032003 10 204 0.0 0.0 0.00 0.03 0.03 96 1013.2
20260510031458 10 204 0.0 1.6 0.00 0.03 0.03 96 1013.3
20260510030954 10 204 0.0 0.0 0.00 0.03 0.03 96 1013.2
20260510030449 10 204 0.0 0.0 0.00 0.03 0.03 96 1013.1
20260510025947 10 204 0.0 0.0 0.00 0.03 0.03 96 1013.1
20260510025444 10 204 0.0 0.0 0.00 0.03 0.03 96 1013.3
20260510024942 10 204 1.6 1.6 0.00 0.03 0.03 95 1013.1
20260510024438 10 204 0.0 0.0 0.00 0.03 0.03 95 1013.2
20260510023934 10 204 0.0 0.0 0.00 0.03 0.03 95 1013.2
20260510023431 10 204 0.0 0.0 0.00 0.03 0.03 95 1013.2
20260510022928 10 204 0.0 0.0 0.00 0.03 0.03 95 1013.1
20260510022427 10 204 0.0 1.6 0.00 0.03 0.03 94 1012.9
20260510021926 10 204 0.0 0.0 0.00 0.03 0.03 93 1012.9
20260510021424 11 204 0.0 0.0 0.00 0.03 0.03 93 1012.9
20260510020920 11 204 0.0 1.6 0.00 0.03 0.03 93 1012.8
20260510020415 11 204 0.0 1.6 0.00 0.03 0.03 93 1012.9
20260510015911 11 204 1.6 1.6 0.00 0.03 0.03 92 1012.8
20260510015407 11 204 0.0 1.6 0.00 0.03 0.03 91 1012.8
20260510014908 11 204 0.0 0.0 0.00 0.03 0.03 91 1012.3
20260510014406 11 204 0.0 1.6 0.00 0.03 0.03 90 1012.2
20260510013902 12 204 0.0 1.6 0.00 0.03 0.03 90 1012.1
20260510013357 12 204 0.0 1.6 0.00 0.03 0.03 88 1012.0
20260510012852 12 204 0.0 0.0 0.00 0.03 0.03 88 1012.2
20260510012347 12 204 0.0 0.0 0.00 0.03 0.03 87 1012.1
20260510011842 12 204 0.0 0.0 0.00 0.03 0.03 86 1012.1
20260510011337 12 204 0.0 0.0 0.00 0.03 0.03 85 1012.0
20260510010834 13 204 0.0 0.0 0.00 0.03 0.03 84 1011.9
20260510010331 13 204 0.0 0.0 0.00 0.03 0.03 83 1011.9
20260510005828 14 204 1.6 1.6 0.00 0.03 0.03 81 1011.8
20260510005324 15 204 1.6 1.6 0.00 0.03 0.03 78 1011.9
20260510004822 15 205 0.0 1.6 0.00 0.03 0.03 74 1011.7
20260510004319 16 205 0.0 1.6 0.00 0.03 0.03 71 1011.7
20260510003817 16 228 0.0 1.6 0.00 0.03 0.03 68 1011.7
20260510003314 17 244 0.0 1.6 0.00 0.03 0.03 67 1011.5
20260510002812 17 245 0.0 1.6 0.00 0.03 0.03 65 1011.6
20260510002310 17 241 0.0 1.6 0.00 0.03 0.03 65 1011.4
20260510001806 17 266 0.0 0.0 0.00 0.03 0.03 65 1011.3
20260510001305 18 265 0.0 3.2 0.00 0.03 0.03 64 1011.2
20260510000800 18 266 1.6 3.2 0.00 0.03 0.03 62 1011.4
20260510000258 18 244 0.0 1.6 0.00 0.03 0.03 62 1011.3
20260509235755 18 269 1.6 4.8 0.00 0.03 0.03 61 1011.1
20260509235251 18 260 3.2 4.8 0.00 0.03 0.03 61 1011.1
20260509234747 18 260 3.2 6.4 0.00 0.03 0.03 60 1011.0
20260509234244 18 263 6.4 6.4 0.00 0.03 0.03 60 1011.0
20260509233742 18 279 3.2 11.3 0.00 0.03 0.03 60 1011.1
20260509233240 18 275 8.0 9.7 0.00 0.03 0.03 59 1011.1
20260509232735 18 229 4.8 6.4 0.00 0.03 0.03 60 1010.9
20260509232233 18 248 6.4 9.7 0.00 0.03 0.03 60 1010.9
20260509231729 18 271 3.2 4.8 0.00 0.03 0.03 60 1011.0
20260509231226 18 276 4.8 6.4 0.00 0.03 0.03 59 1011.0
20260509230724 18 243 3.2 11.3 0.00 0.03 0.03 60 1011.0
20260509230221 19 262 6.4 11.3 0.00 0.03 0.03 58 1010.9
20260509225716 19 272 3.2 4.8 0.00 0.03 0.03 58 1011.0
20260509225212 20 240 1.6 9.7 0.00 0.03 0.03 59 1011.1
20260509224708 20 228 4.8 24.1 0.00 0.03 0.03 57 1011.2
20260509224206 20 252 1.6 9.7 0.00 0.03 0.03 59 1011.3
20260509223703 20 267 6.4 9.7 0.00 0.03 0.03 55 1011.3
20260509223159 20 260 3.2 12.9 0.00 0.03 0.03 55 1011.2
20260509222656 20 216 3.2 6.4 0.00 0.03 0.03 55 1011.2
20260509222151 21 292 6.4 11.3 0.00 0.03 0.03 53 1011.2
20260509221647 20 309 1.6 16.1 0.00 0.03 0.03 56 1011.1
20260509221143 20 276 6.4 9.7 0.00 0.03 0.03 55 1011.3
20260509220639 21 288 11.3 12.9 0.00 0.03 0.03 52 1011.2
20260509220135 21 265 0.0 3.2 0.00 0.03 0.03 55 1011.4
20260509215632 21 281 9.7 12.9 0.00 0.03 0.03 55 1011.4
20260509215128 20 228 4.8 9.7 0.00 0.03 0.03 54 1011.4
20260509214626 20 263 8.0 11.3 0.00 0.03 0.03 55 1011.4
20260509214122 21 294 8.0 12.9 0.00 0.03 0.03 53 1011.4
20260509213619 20 290 3.2 4.8 0.00 0.03 0.03 55 1011.3
20260509213115 21 298 4.8 6.4 0.00 0.03 0.03 55 1011.5
20260509212613 21 282 4.8 6.4 0.00 0.03 0.03 55 1011.5
20260509212110 21 233 3.2 6.4 0.00 0.03 0.03 57 1011.4
20260509211605 20 7 1.6 14.5 0.00 0.03 0.03 56 1011.4
20260509211102 20 275 3.2 6.4 0.00 0.03 0.03 57 1011.5
20260509210559 20 230 3.2 11.3 0.00 0.03 0.03 59 1011.4
20260509210056 19 256 6.4 9.7 0.00 0.03 0.03 58 1011.6
20260509205550 19 300 4.8 12.9 0.00 0.03 0.03 59 1011.6
20260509205045 19 231 3.2 11.3 0.00 0.03 0.03 59 1011.2
20260509204542 20 229 8.0 9.7 0.00 0.03 0.03 55 1011.5
20260509204038 19 4 1.6 3.2 0.00 0.03 0.03 59 1011.4
20260509203534 20 252 8.0 12.9 0.00 0.03 0.03 57 1011.4
20260509203033 20 289 1.6 6.4 0.00 0.03 0.03 60 1011.4
20260509202532 20 275 0.0 6.4 0.00 0.03 0.03 58 1011.6
20260509202028 20 271 0.0 4.8 0.00 0.03 0.03 58 1011.4
20260509201523 19 272 6.4 9.7 0.00 0.03 0.03 57 1011.5
20260509201021 20 218 6.4 12.9 0.00 0.03 0.03 55 1011.5
20260509200521 20 263 4.8 12.9 0.00 0.03 0.03 57 1011.6
20260509200018 20 204 9.7 12.9 0.00 0.03 0.03 55 1011.6
20260509195514 20 250 6.4 12.9 0.00 0.03 0.03 54 1011.8
20260509195013 20 228 4.8 6.4 0.00 0.03 0.03 53 1011.6
20260509194509 19 243 1.6 4.8 0.00 0.03 0.03 58 1011.7
20260509194007 18 290 3.2 12.9 0.00 0.03 0.03 58 1012.0
20260509193506 20 217 6.4 9.7 0.00 0.03 0.03 55 1011.7
20260509193003 19 254 3.2 12.9 0.00 0.03 0.03 57 1011.7
20260509192459 20 260 4.8 6.4 0.00 0.03 0.03 56 1011.8
20260509191954 20 237 3.2 11.3 0.00 0.03 0.03 55 1011.7
20260509191450 20 226 3.2 6.4 0.00 0.03 0.03 56 1011.6
20260509190946 19 296 6.4 9.7 0.00 0.03 0.03 57 1011.6
20260509190443 19 220 4.8 12.9 0.00 0.03 0.03 57 1011.7
20260509185941 19 252 3.2 14.5 0.00 0.03 0.03 57 1011.7
20260509185438 18 240 3.2 6.4 0.00 0.03 0.03 58 1011.6
20260509184934 19 238 3.2 14.5 0.00 0.03 0.03 59 1011.8
20260509184432 19 170 1.6 3.2 0.00 0.03 0.03 57 1011.8
20260509183928 18 274 1.6 4.8 0.00 0.03 0.03 57 1011.8
20260509183423 19 247 3.2 6.4 0.00 0.03 0.03 55 1011.8
20260509182920 18 272 1.6 3.2 0.00 0.03 0.03 58 1011.7
20260509182416 19 245 6.4 11.3 0.00 0.03 0.03 55 1011.7
20260509181914 19 308 0.0 3.2 0.00 0.03 0.03 60 1011.7
20260509181411 18 286 6.4 6.4 0.00 0.03 0.03 57 1011.8
20260509180908 19 249 4.8 9.7 0.00 0.03 0.03 55 1011.8
20260509180404 20 158 0.0 4.8 0.00 0.03 0.03 57 1011.5
20260509175901 18 204 1.6 3.2 0.00 0.03 0.03 60 1011.6
20260509175357 18 266 1.6 4.8 0.00 0.03 0.03 60 1011.7
20260509174853 17 195 4.8 9.7 0.00 0.03 0.03 58 1011.7
20260509174350 17 320 0.0 4.8 0.00 0.03 0.03 59 1011.9
20260509173845 17 264 3.2 4.8 0.00 0.03 0.03 60 1012.0
20260509173341 17 238 3.2 6.4 0.00 0.03 0.03 59 1012.1
20260509172837 17 290 1.6 3.2 0.00 0.03 0.03 58 1012.0
20260509172334 17 265 1.6 6.4 0.00 0.03 0.03 61 1012.2
20260509171830 17 153 0.0 3.2 0.00 0.03 0.03 59 1012.1
20260509171325 17 268 4.8 4.8 0.00 0.03 0.03 60 1012.1
20260509170822 17 227 4.8 9.7 0.00 0.03 0.03 60 1012.2
20260509170318 17 252 3.2 4.8 0.00 0.03 0.03 64 1012.2
20260509165818 17 245 0.0 6.4 0.00 0.03 0.03 65 1012.1
20260509165313 17 231 0.0 3.2 0.00 0.03 0.03 68 1012.2
20260509164809 16 251 4.8 4.8 0.00 0.03 0.03 66 1012.0
20260509164305 16 250 3.2 6.4 0.00 0.03 0.03 67 1012.2
20260509163802 16 130 3.2 4.8 0.00 0.03 0.03 67 1012.2
20260509163259 16 154 0.0 3.2 0.00 0.03 0.03 68 1012.2
20260509162758 16 153 0.0 1.6 0.00 0.03 0.03 68 1012.1
20260509162256 16 250 1.6 1.6 0.00 0.03 0.03 67 1012.3
20260509161753 16 249 0.0 1.6 0.00 0.03 0.03 68 1011.9
20260509161248 16 221 1.6 1.6 0.00 0.03 0.03 69 1012.1
20260509160744 16 127 0.0 3.2 0.00 0.03 0.03 68 1012.3
20260509160241 15 105 0.0 0.0 0.00 0.03 0.03 69 1012.3
20260509155736 15 105 3.2 4.8 0.00 0.03 0.03 70 1012.3
20260509155233 15 225 1.6 1.6 0.00 0.03 0.03 69 1012.2
20260509154729 15 84 3.2 4.8 0.00 0.03 0.03 71 1012.3
20260509154226 15 146 0.0 1.6 0.00 0.03 0.03 73 1012.3
20260509153724 15 204 0.0 1.6 0.00 0.03 0.03 73 1012.3
20260509153219 15 90 4.8 4.8 0.00 0.03 0.03 74 1012.1
20260509152716 15 225 3.2 4.8 0.00 0.03 0.03 72 1012.2
20260509152212 15 249 6.4 9.7 0.00 0.03 0.03 72 1012.6
20260509151709 15 134 3.2 9.7 0.00 0.03 0.03 75 1012.5
20260509151206 15 137 0.0 4.8 0.00 0.03 0.03 75 1012.7
20260509150704 15 177 1.6 3.2 0.00 0.03 0.03 74 1012.5
20260509150202 15 120 3.2 4.8 0.00 0.03 0.03 75 1012.8
20260509145658 15 279 0.0 3.2 0.00 0.03 0.03 74 1012.9
20260509145153 14 279 0.0 3.2 0.00 0.03 0.03 75 1012.9
20260509144650 14 142 3.2 3.2 0.00 0.03 0.03 76 1012.6
20260509144148 14 139 0.0 3.2 0.00 0.03 0.03 77 1012.6
20260509143644 14 151 0.0 1.6 0.00 0.03 0.03 74 1012.6
20260509143142 14 202 0.0 0.0 0.00 0.03 0.03 78 1012.7
20260509142637 14 202 3.2 3.2 0.00 0.03 0.03 77 1012.8
20260509142134 15 123 0.0 3.2 0.00 0.03 0.03 76 1012.8
20260509141630 14 123 1.6 3.2 0.00 0.03 0.03 80 1012.6
20260509141126 14 115 0.0 3.2 0.00 0.03 0.03 81 1012.5
20260509140624 13 115 0.0 3.2 0.00 0.03 0.03 81 1012.5
20260509140122 13 123 1.6 4.8 0.00 0.03 0.03 81 1012.6
20260509135619 13 179 0.0 0.0 0.00 0.03 0.03 83 1012.8
20260509135117 13 179 0.0 0.0 0.00 0.03 0.03 88 1012.8
20260509134613 13 179 0.0 0.0 0.00 0.03 0.03 86 1012.9
20260509134110 13 179 1.6 3.2 0.00 0.03 0.03 88 1012.8
20260509133607 12 179 0.0 3.2 0.00 0.03 0.03 88 1012.8
20260509133104 13 187 0.0 0.0 0.00 0.03 0.03 89 1013.0
20260509132603 12 187 0.0 0.0 0.00 0.03 0.03 88 1013.3
20260509132101 12 187 0.0 0.0 0.00 0.03 0.03 87 1013.1
20260509131556 12 187 0.0 0.0 0.00 0.03 0.03 87 1013.3
20260509131054 12 187 0.0 0.0 0.00 0.03 0.03 87 1013.4
20260509130549 12 187 0.0 0.0 0.00 0.03 0.03 89 1013.3
20260509130046 12 187 0.0 0.0 0.00 0.03 0.03 89 1013.4
20260509125542 12 187 0.0 0.0 0.00 0.03 0.03 89 1013.3
20260509125039 12 187 0.0 0.0 0.00 0.03 0.03 90 1013.2
20260509124536 12 187 0.0 0.0 0.00 0.03 0.03 93 1013.1
20260509124033 11 187 0.0 0.0 0.00 0.03 0.03 94 1013.3
20260509123531 11 187 0.0 0.0 0.00 0.03 0.03 95 1013.5
20260509123027 11 187 0.0 0.0 0.00 0.03 0.03 95 1013.1
20260509122523 11 187 0.0 0.0 0.00 0.03 0.03 96 1013.1
20260509122021 11 187 0.0 0.0 0.00 0.03 0.03 96 1013.2
20260509121517 11 187 0.0 0.0 0.00 0.03 0.03 96 1013.3
20260509121015 11 187 0.0 0.0 0.00 0.03 0.03 96 1013.2
20260509120514 11 187 0.0 0.0 0.00 0.03 0.03 97 1013.3
20260509120011 11 187 0.0 0.0 0.00 0.03 0.03 97 1013.3
20260509115508 10 187 0.0 0.0 0.00 0.03 0.03 97 1013.4
20260509115006 10 187 0.0 0.0 0.00 0.03 0.03 97 1013.2
20260509114503 10 187 0.0 0.0 0.00 0.03 0.03 97 1013.1
20260509114002 10 187 0.0 0.0 0.00 0.03 0.03 97 1013.2
20260509113459 10 187 0.0 0.0 0.00 0.03 0.03 97 1013.2
20260509112957 10 187 0.0 0.0 0.00 0.03 0.03 97 1013.2
20260509112454 10 187 0.0 0.0 0.00 0.03 0.03 97 1013.4
20260509111950 10 187 0.0 0.0 0.00 0.03 0.03 97 1013.2
20260509111448 10 187 0.0 0.0 0.00 0.03 0.03 98 1013.1
20260509110945 10 187 0.0 0.0 0.00 0.03 0.03 98 1013.0
20260509110441 10 187 0.0 0.0 0.00 0.03 0.03 98 1013.0
20260509105939 10 187 0.0 0.0 0.00 0.03 0.03 98 1013.0
20260509105437 10 187 0.0 0.0 0.00 0.03 0.03 98 1013.0
20260509104934 10 187 0.0 0.0 0.00 0.03 0.03 97 1012.8
20260509104431 10 187 0.0 0.0 0.00 0.03 0.03 97 1012.8
20260509103928 10 187 0.0 0.0 0.00 0.03 0.03 97 1012.8
20260509103425 10 187 0.0 0.0 0.00 0.03 0.03 97 1012.9
20260509102924 10 187 0.0 0.0 0.00 0.03 0.03 97 1012.9
20260509102421 10 187 0.0 0.0 0.00 0.03 0.03 97 1012.8
20260509101916 10 187 0.0 0.0 0.00 0.03 0.03 97 1012.9
20260509101413 10 187 0.0 0.0 0.00 0.03 0.03 97 1012.8
20260509100911 10 187 0.0 0.0 0.00 0.03 0.03 96 1013.0
20260509100408 10 187 0.0 0.0 0.00 0.03 0.03 96 1013.0
20260509095904 10 187 0.0 0.0 0.00 0.03 0.03 96 1012.9
20260509095401 10 187 0.0 0.0 0.00 0.03 0.03 96 1012.7
20260509094858 10 187 0.0 0.0 0.00 0.03 0.03 96 1013.0
20260509094355 10 187 0.0 0.0 0.00 0.03 0.03 96 1013.1
20260509093853 10 187 0.0 0.0 0.00 0.03 0.03 96 1013.0
20260509093350 10 187 0.0 0.0 0.00 0.03 0.03 95 1013.1
20260509092848 10 187 0.0 0.0 0.00 0.03 0.03 95 1013.2
20260509092346 10 187 0.0 1.6 0.00 0.03 0.03 95 1013.1
20260509091844 11 189 0.0 0.0 0.00 0.03 0.03 94 1013.0
20260509091340 11 189 1.6 1.6 0.00 0.03 0.03 94 1013.2
20260509090838 11 189 0.0 1.6 0.00 0.03 0.03 92 1013.1
20260509090335 11 189 0.0 0.0 0.00 0.03 0.03 91 1013.3
20260509085832 11 189 0.0 0.0 0.00 0.03 0.03 89 1013.2
20260509085329 10 187 3.2 3.2 0.00 0.03 0.03 90 1013.3
20260509084826 10 108 0.0 0.0 0.00 0.03 0.03 96 1013.2
20260509084323 10 108 0.0 0.0 0.00 0.03 0.03 97 1013.3
20260509083821 10 108 0.0 1.6 0.00 0.03 0.03 97 1013.2